KB1JDX Weather Reports


time (UTC)temp
C
wind
direction
speed
KPH
gust
KPH
rain 1hr
cm
rain 24hr
cm
rain mn
cm
humidity
%
barometer
mb
20260510102037 11 173 0.0 0.0 0.00 1.60 0.00 100 1012.6
20260510101929 11 172 0.0 0.0 0.00 1.60 0.00 100 1012.6
20260510100037 11 172 0.0 0.0 0.00 1.60 0.00 100 1012.5
20260510094038 11 173 0.0 0.0 0.00 1.63 0.00 100 1012.5
20260510092037 11 173 0.0 0.0 0.00 1.63 0.00 100 1012.3
20260510091929 11 173 0.0 0.0 0.00 1.63 0.00 100 1012.3
20260510090037 11 173 0.0 0.0 0.00 1.63 0.00 100 1012.0
20260510084037 11 173 0.0 0.0 0.00 1.63 0.00 100 1011.7
20260510082037 11 173 0.0 0.0 0.00 1.63 0.00 100 1011.7
20260510081929 11 173 0.0 0.0 0.00 1.63 0.00 100 1011.7
20260510080038 11 173 0.0 0.0 0.00 1.63 0.00 100 1011.8
20260510074037 11 172 0.0 0.0 0.00 1.63 0.00 100 1011.9
20260510072037 11 172 0.0 0.0 0.00 1.63 0.00 100 1011.8
20260510071929 11 172 0.0 0.0 0.00 1.63 0.00 100 1011.8
20260510070039 11 172 0.0 0.0 0.00 1.63 0.00 100 1011.5
20260510064038 11 172 0.0 0.0 0.00 1.63 0.00 100 1011.5
20260510062037 11 172 0.0 0.0 0.00 1.63 0.00 100 1011.3
20260510061929 11 172 0.0 0.0 0.00 1.63 0.00 100 1011.3
20260510060037 11 172 0.0 0.0 0.00 1.63 0.00 100 1011.5
20260510054037 11 172 0.0 0.0 0.00 1.63 0.00 100 1011.6
20260510052037 11 172 0.0 0.0 0.00 1.63 0.00 100 1011.7
20260510051929 11 172 0.0 0.0 0.00 1.63 0.00 100 1011.6
20260510050037 11 172 0.0 0.0 0.00 1.63 0.00 100 1011.2
20260510044037 11 172 0.0 0.0 0.00 1.63 0.00 100 1011.2
20260510042037 11 172 0.0 0.0 0.00 1.63 0.00 100 1011.4
20260510041929 11 172 0.0 0.0 0.00 1.63 0.00 100 1011.5
20260510034038 11 172 0.0 0.0 0.00 1.63 1.63 100 1011.4
20260510032037 11 172 0.0 0.0 0.00 1.63 1.63 100 1011.2
20260510031929 11 172 0.0 0.0 0.00 1.63 1.63 100 1011.1
20260510030037 11 172 0.0 0.0 0.00 1.63 1.63 100 1011.3
20260510024037 11 172 0.0 0.0 0.18 1.63 1.63 100 1011.6
20260510022134 11 172 0.0 0.0 0.18 1.63 1.63 100 1011.6
20260510022038 11 172 0.0 0.0 0.18 1.63 1.63 100 1011.6
20260510021929 11 172 0.0 0.0 0.18 1.63 1.63 100 1011.6
20260510020037 11 172 0.0 0.0 0.25 1.45 1.45 100 1011.8
20260510014037 11 172 0.0 0.0 0.25 1.45 1.45 100 1011.9
20260510012037 11 184 0.0 0.0 0.25 1.45 1.45 100 1012.0
20260510011929 11 184 0.0 0.0 0.25 1.45 1.45 100 1012.0
20260510010037 11 187 0.0 0.0 0.25 1.45 1.45 100 1012.5
20260510004037 11 187 0.0 0.0 0.30 1.19 1.19 100 1012.9
20260510002037 11 185 0.0 0.0 0.30 1.19 1.19 100 1012.4
20260510001929 11 185 0.0 0.0 0.30 1.19 1.19 100 1012.5
20260509234037 12 198 0.0 0.0 0.36 0.89 0.89 100 1012.2
20260509232037 12 199 0.0 0.0 0.36 0.89 0.89 100 1012.2
20260509231929 12 204 0.0 0.0 0.36 0.89 0.89 100 1012.2
20260509230037 12 217 0.0 0.0 0.30 0.53 0.53 100 1012.1
20260509224037 12 217 0.0 0.0 0.30 0.53 0.53 100 1012.2
20260509222037 12 187 0.0 0.0 0.30 0.53 0.53 100 1012.2
20260509221929 12 184 0.0 0.0 0.30 0.53 0.53 100 1012.4
20260509220037 12 185 0.0 0.0 0.30 0.53 0.53 3 1012.1
20260509214037 12 180 0.0 14.5 0.10 0.23 0.23 8 1012.0
20260509212037 13 175 0.0 14.5 0.10 0.23 0.23 13 1011.8
20260509211929 13 175 0.0 14.5 0.10 0.23 0.23 14 1011.7
20260509204037 13 223 4.8 24.1 0.03 0.13 0.13 31 1011.8
20260509202037 14 195 0.0 24.1 0.03 0.13 0.13 38 1011.6
20260509201929 14 195 0.0 24.1 0.03 0.13 0.13 39 1011.6
20260509200039 15 230 8.0 22.5 0.00 0.10 0.10 59 1011.4
20260509194037 16 170 3.2 22.5 0.00 0.10 0.10 63 1011.0
20260509192037 16 188 0.0 22.5 0.00 0.10 0.10 63 1011.0
20260509191929 16 188 0.0 22.5 0.00 0.10 0.10 63 1011.1
20260509190038 16 182 9.7 22.5 0.00 0.10 0.10 62 1011.1
20260509184037 16 207 0.0 22.5 0.00 0.10 0.10 65 1011.3
20260509182037 16 200 0.0 22.5 0.00 0.10 0.10 65 1011.4
20260509181929 16 200 8.0 22.5 0.00 0.10 0.10 65 1011.3
20260509180039 15 226 0.0 24.1 0.00 0.10 0.10 64 1011.6
20260509174037 15 211 0.0 24.1 0.00 0.10 0.10 64 1011.7
20260509172037 15 181 0.0 24.1 0.00 0.10 0.10 64 1012.3
20260509171929 15 182 0.0 24.1 0.00 0.10 0.10 65 1012.3
20260509170037 15 189 8.0 25.7 0.00 0.10 0.10 66 1012.6
20260509164037 15 226 0.0 25.7 0.00 0.10 0.10 65 1012.5
20260509162037 16 230 8.0 25.7 0.00 0.10 0.10 65 1012.4
20260509161929 16 200 14.5 25.7 0.00 0.10 0.10 65 1012.4
20260509160037 16 202 0.0 17.7 0.00 0.10 0.10 65 1012.4
20260509154037 16 195 4.8 17.7 0.00 0.10 0.10 65 1012.5
20260509151929 15 188 0.0 17.7 0.00 0.10 0.10 63 1012.5
20260509150037 13 200 0.0 17.7 0.00 0.10 0.10 59 1012.7
20260509144037 12 196 0.0 0.0 0.00 0.10 0.10 37 1012.9
20260509142037 12 194 0.0 0.0 0.00 0.10 0.10 22 1013.1
20260509141929 12 194 0.0 0.0 0.00 0.10 0.10 22 1013.1
20260509140037 11 202 0.0 0.0 0.00 0.10 0.10 1 1013.4
20260509134036 10 290 0.0 0.0 0.00 0.10 0.10 100 1013.7
20260509132037 9 290 0.0 0.0 0.00 0.10 0.10 100 1014.2
20260509131929 9 290 0.0 0.0 0.00 0.10 0.10 100 1014.2
20260509130037 8 290 0.0 0.0 0.00 0.10 0.10 100 1014.0
20260509122038 7 290 0.0 0.0 0.00 0.10 0.10 1 1014.4
20260509121929 7 290 0.0 0.0 0.00 0.10 0.10 1 1014.4
20260509120037 7 290 0.0 0.0 0.08 0.10 0.10 4 1014.1
20260509114037 6 290 0.0 0.0 0.08 0.10 0.10 8 1014.3
20260509112037 6 290 0.0 0.0 0.08 0.10 0.10 12 1014.5
20260509111929 6 290 0.0 0.0 0.08 0.10 0.10 13 1014.5
20260509110037 6 290 0.0 0.0 0.03 0.03 0.03 15 1014.5
20260509104037 5 290 0.0 0.0 0.03 0.03 0.03 20 1014.8